SCP
0 0 0 0 0 0 0 0 0 0 0 0 0 0 0 0 0 0 0 0 0 0 0 0 0 0 0 0 0 0 0 0 0 0 0 0 0 0 0 0 0 0 0
0 0 0 0 0 0 0 0 0 0 0 0 0 0 0 0 0 0 0 0 0 0 0 0 0 0 0 0 0 0 0 0 0 0 0 0 0 0 0 0 0 0 0
0 0 0 0 0 0 0 0 0 0 0 0 0 0 0 0 0 0 0 0 0 0 0 0 0 0 0 0 0 0 0 0 0 0 0 0 0 0 0 0 0 0 0
0 0 0 0 0 0 0 0 0 0 0 0 0 0 0 0 0 0 0 0 0 0 0 0 0 0 0 0 0 0 0 0 0 0 0 0 0 0 0 0 0 0 0
0 0 0 0 0 0 0 0 0 0 0 0 0 0 0 0 0 0 0 0 0 0 0 0 0 0 0 0 0 0 0 0 0 0 0 0 0 0 0 0 0 0 0
0 0 0 0 0 0 0 0 0 0 0 0 0 0 0 0 0 0 0 0 0 0 0 0 0 0 0 0 0 0 0 0 0 0 0 0 0 0 0 0 0 0 0
0 0 0 0 0 0 0 0 0 0 0 0 0 0 0 0 0 0 0 0 0 0 0 0 0 0 0 0 0 0 0 0 0 0 0 0 0 0 0 0 0 0 0
0 0 0 0 0 0 0 0 0 0 0 0 0 0 0 0 0 0 0 0 0 0 0 0 0 0 0 0 0 0 0 0 0 0 0 0 0 0 0 0 0 0 0
0 0 0 0 0 0 0 0 0 0 0 0 0 0 0 0 0 0 0 0 0 0 0 0 0 0 0 0 0 0 0 0 0 0 0 0 0 0 0 0 0 0 0
-0 0 0 0 0 0 0 0 0 0 0 0 0 0 0 0 0 0 0 0 0 0 0 0 0 0 0 0 0 0 0 0 0 0 0 0 0 0 0 0 0 0 0
0 0 0 0 0 0 0 0 0 0 0 0 0 0 0 0 0 0 0 0 0 0 0 0 0 0 0 0 0 0 0 0 0 0 0 0 0 0 0 0 0 0 0
0 0 0 0 0 0 0 0 0 0 0 0 0 0 0 0 0 0 0 0 0 0 0 0 0 0 0 0 0 0 0 0 0 0 0 0 0 0 0 0 0 0 0
0 0 0 0 0 0 0 0 0 0 0 0 0 0 0 0 0 0 0 0 0 0 0 0 0 0 0 0 0 0 0 0 0 0 0 0 0 0 0 0 0 0 0
0 0 0 0 0 0 0 0 0 0 0 0 0 0 0 0 0 0 0 0 0 0 0 0 0 0 0 0 0 0 0 0 0 0 0 0 0 0 0 0 0 0 0
0 0 0 0 0 0 0 0 0 0 0 0 0 0 0 0 0 0 0 0 0 0 0 0 0 0 0 0 0 0 0 0 0 0 0 0 0 0 0 0 0 0 0
0 0 0 0 0 0 0 0 0 0 0 0 0 0 0 0 0 0 0 0 0 0 0 0 0 0 0 0 0 0 0 0 0 0 0 0 0 0 0 0 0 0 0
0 0 0 0 0 0 0 0 0 0 0 0 0 0 0 0 0 0 0 0 0 0 0 0 0 0 0 0 0 0 0 0 0 0 0 0 0 0 0 0 0 0 0
0 0 0 0 0 0 0 0 0 0 0 0 0 0 0 0 0 0 0 0 0 0 0 0 0 0 0 0 0 0 0 0 0 0 0 0 0 0 0 0 0 0 0
0 0 0 0 0 0 0 0 0 0 0 0 0 0 0 0 0 0 0 0 0 0 0 0 0 0 0 0 0 0 0 0 0 0 0 0 0 0 0 0 0 0 0
0 0 0 0 0 0 0 0 0 0 0 0 0 0 0 0 0 0 0 0 0 0 0 0 0 0 0 0 0 0 0 0 0 0 0 0 0 0 0 0 0 0 0
0 0 0 0 0 0 0 0 0 0 0 0 0 0 0 0 0 0 0 0 0 0 0 0 0 0 0 0 0 0 0 0 0 0 0 0 0 0 0 0 0 0 0
0 0 0 0 0 0 0 0 0 0 0 0 0 0 0 0 0 0 0 0 0 0 0 0 0 0 0 0 0 0 0 0 0 0 0 0 0 0 0 0 0 0 0
0 0 0 0 0 0 0 0 0 0 0 0 0 0 0 0 0 0 0 0 0 0 0 0 0 0 0 0 0 0 0 0 0 0 0 0 0 0 0 0 0 0 0
0 0 0 0 0 0 0 0 0 0 0 0 0 0 0 0 0 0 0 0 0 0 0 0 0 0 0 0 0 0 0 0 0 0 0 0 0 0 0 0 0 0 0
0 0 0 0 0 0 0 0 0 0 0 0 0 0 0 0 0 0 0 0 0 0 0 0 0 0 0 0 0 0 0 0 0 0 0 0 0 0 0 0 0 0 0
0 0 0 0 0 0 0 0 0 0 0 0 0 0 0 0 0 0 0 0 0 0 0 0 0 0 0 0 0 0 0 0 0 0 0 0 0 0 0 0 0 0 0
Wind_Speed_500mb
21 21 26 36 43 45 46 47 48 49 51 52 54 55 58 61 64 66 65 65 61 63 61 69 60 64 61 56 53 50 58 54 55 35 35 38 39 38 34 30 27 25 24
20 17 16 17 21 25 28 31 33 37 41 46 50 54 57 59 60 60 62 58 57 61 63 56 64 60 58 57 54 56 54 52 51 52 46 41 40 35 32 28 25 25 26
25 23 21 19 20 22 25 28 31 36 39 42 46 50 52 53 56 56 55 53 56 60 59 61 60 61 61 59 57 55 52 50 50 51 47 42 39 36 32 28 27 26 26
20 23 24 25 25 28 31 33 35 38 41 44 46 49 51 53 53 51 54 57 58 60 63 62 63 63 62 59 56 54 51 49 47 47 45 42 40 35 32 28 27 28 27
25 25 27 28 30 32 34 38 41 44 46 49 51 54 55 57 59 58 58 60 63 63 64 66 66 64 61 58 55 52 51 49 47 46 44 42 39 35 33 30 27 26 28
40 44 47 48 49 49 49 48 51 53 55 58 60 62 63 65 67 65 64 65 66 68 68 67 67 65 62 60 58 55 53 49 48 46 45 42 38 34 32 29 25 23 26
42 43 47 50 55 60 62 65 67 66 67 69 69 69 70 71 71 70 70 71 70 70 70 69 68 66 66 64 63 60 54 49 48 46 44 43 38 34 32 29 26 24 26
40 40 42 49 54 58 63 68 70 72 75 77 76 75 74 74 75 74 74 74 74 73 72 70 69 68 68 67 64 61 59 55 51 50 47 41 37 34 32 29 25 24 26
48 48 47 49 52 58 64 66 70 73 76 77 79 80 79 78 79 78 78 74 76 76 74 72 73 72 69 66 61 57 55 54 51 49 43 37 35 33 32 30 26 25 25
56 56 55 53 55 58 63 68 71 71 73 77 81 82 82 82 82 81 80 76 77 78 78 76 77 74 69 65 62 60 58 53 49 46 43 41 38 36 33 29 26 24 22
62 60 57 57 59 58 60 64 68 73 75 74 77 82 85 85 84 82 82 78 78 81 81 79 78 75 73 66 64 63 58 54 49 44 41 38 39 35 32 28 26 25 21
66 67 67 64 58 58 62 64 66 69 71 74 79 82 85 86 83 84 83 80 74 79 82 80 78 75 72 69 67 64 61 58 48 45 41 43 39 36 32 29 27 25 20
69 69 67 66 64 61 60 60 62 64 67 72 75 78 83 88 83 81 82 81 75 79 80 80 74 68 71 70 70 65 70 57 48 42 46 46 43 39 32 30 27 24 20
68 69 69 68 66 63 60 58 60 64 66 67 70 76 77 81 84 80 80 78 75 73 74 72 71 68 69 68 64 68 66 54 46 49 53 49 43 37 35 30 27 24 22
65 66 67 67 64 64 61 60 60 62 59 65 68 69 72 78 83 76 79 87 86 75 74 72 69 73 75 73 69 71 63 53 51 54 53 48 41 41 36 31 29 25 23
63 63 63 65 65 63 64 65 61 62 60 60 63 63 70 70 67 68 65 74 81 81 81 77 76 80 81 79 77 74 68 58 55 57 53 47 45 41 37 33 30 27 24
62 64 65 64 63 63 61 62 67 62 61 62 60 58 57 60 62 56 54 56 59 67 82 82 79 85 89 82 74 71 67 61 58 59 52 50 45 40 37 34 33 29 26
61 63 64 64 63 62 61 60 61 62 64 62 58 53 52 56 62 62 58 57 69 72 83 81 81 79 78 78 78 75 70 60 61 58 57 53 48 44 40 37 34 30 26
62 62 61 63 64 64 63 61 60 60 60 60 54 49 44 52 54 55 48 73 86 86 90 83 80 79 80 76 76 72 64 64 63 57 54 51 47 44 41 37 36 31 27
63 64 64 63 62 62 62 62 60 59 58 57 55 49 49 47 55 59 54 72 86 85 81 84 81 77 79 77 77 71 67 62 57 56 58 54 48 44 41 40 37 33 29
62 63 63 66 66 62 62 61 61 61 61 61 58 52 49 53 60 66 66 64 83 84 90 86 78 78 74 72 72 68 61 57 58 60 57 53 50 47 44 42 38 34 31
66 67 65 65 64 64 64 62 61 62 63 64 65 59 51 51 60 66 68 65 76 89 91 88 77 66 62 62 65 58 54 61 58 61 57 54 51 49 46 44 40 36 33
66 66 67 66 67 66 64 62 61 60 61 62 63 62 65 61 55 69 72 68 73 80 84 83 72 57 57 52 54 53 56 56 54 52 54 53 51 49 47 45 41 37 34
65 66 68 69 67 65 64 64 62 61 60 60 60 62 64 63 57 61 73 70 75 72 70 69 69 62 61 59 56 54 56 53 52 52 53 53 51 50 47 45 41 36 35
66 66 66 67 66 65 66 66 64 61 60 59 60 60 61 62 61 59 65 72 72 77 77 74 70 66 62 59 55 51 51 51 51 53 54 53 51 49 46 45 41 38 38
68 67 67 66 67 66 66 65 64 62 61 60 59 59 58 58 57 56 57 61 63 63 67 69 66 62 60 57 47 50 52 53 55 55 55 53 51 49 47 45 41 41 41
Wind_Direction_500mb
316 295 276 265 261 260 259 257 257 253 252 252 252 253 255 257 258 257 256 252 245 245 243 251 252 247 253 250 248 254 243 239 232 230 242 242 239 246 255 266 273 278 281
340 335 317 293 276 266 261 259 257 257 257 258 258 258 257 256 257 255 253 248 243 245 244 249 249 249 253 249 249 246 240 238 232 235 237 236 240 247 255 262 268 272 277
351 346 336 317 296 281 271 265 260 258 256 255 254 253 253 253 253 251 250 242 242 250 244 246 245 251 250 252 247 241 236 231 228 233 233 234 237 240 244 249 256 264 273
341 346 345 339 325 313 302 291 278 269 263 259 257 255 254 254 255 251 247 245 244 245 251 245 247 248 250 248 241 238 232 229 225 227 228 231 232 232 237 243 250 258 264
294 295 301 300 299 299 295 289 285 279 272 266 262 260 258 255 255 254 253 253 253 252 251 250 250 249 247 242 238 235 231 228 224 224 225 227 230 232 239 244 248 257 266
303 299 296 294 289 287 283 283 279 275 271 268 265 261 258 256 255 253 253 253 254 253 252 250 249 247 243 240 236 234 231 227 228 226 227 230 233 239 243 248 250 252 270
311 305 301 296 288 283 282 282 282 278 273 269 266 264 263 261 260 259 257 255 255 254 253 251 248 244 240 235 234 232 231 230 228 229 231 233 235 240 245 247 250 253 258
312 309 302 291 288 286 282 278 278 278 278 276 273 269 267 264 262 260 259 258 255 252 250 249 246 242 237 233 230 229 228 226 225 228 230 232 236 239 240 244 246 254 262
319 311 305 301 297 289 285 285 282 279 276 275 275 274 272 270 268 264 260 255 252 250 247 243 240 237 235 233 230 228 224 223 223 226 230 233 237 240 240 241 242 248 260
319 316 313 306 298 294 292 288 281 277 276 274 271 270 270 269 268 265 261 255 250 246 243 240 238 235 234 232 231 229 228 226 223 224 227 230 237 238 240 240 243 246 256
313 312 311 309 306 299 292 289 288 285 280 274 271 269 268 266 265 263 259 253 249 246 244 241 239 237 234 231 231 232 231 228 223 226 227 231 234 231 231 236 242 248 253
311 312 312 310 306 303 301 297 292 288 285 281 278 272 267 265 262 260 259 256 251 249 248 245 243 239 237 231 231 227 224 223 228 229 229 234 233 234 232 235 242 249 254
305 306 307 307 307 304 298 294 290 288 285 284 281 278 274 270 263 258 255 253 248 247 246 245 245 243 241 233 228 224 225 223 221 227 235 232 231 233 234 236 241 247 252
303 304 305 305 305 304 301 297 292 288 286 283 280 278 277 275 270 260 252 249 247 244 245 243 241 238 236 232 224 221 223 220 218 228 229 228 230 230 234 236 241 244 249
302 303 305 306 306 305 301 299 294 290 285 283 280 278 277 274 272 270 261 251 248 246 245 239 232 227 227 227 220 223 219 217 225 226 227 228 226 230 232 233 236 239 245
304 305 306 305 305 304 303 301 297 294 290 284 277 271 273 271 268 269 264 257 250 247 242 238 230 227 226 226 223 221 219 229 227 225 226 224 227 229 231 231 234 236 238
306 307 307 306 305 303 300 298 298 296 291 288 283 279 261 263 267 255 247 238 235 232 238 238 235 232 231 229 229 228 230 228 221 225 223 226 225 227 230 231 232 233 236
303 304 305 306 305 302 300 298 296 295 295 293 289 283 275 254 253 265 258 230 221 219 233 236 233 234 236 239 237 230 234 221 223 223 225 223 223 225 226 227 233 236 240
299 302 304 303 302 300 298 296 294 292 290 291 290 284 271 258 254 262 250 227 222 220 230 236 234 236 237 230 233 232 225 223 223 223 225 224 222 224 225 228 231 234 242
302 305 304 302 299 297 297 296 294 292 290 288 285 278 275 269 252 247 244 229 226 226 226 237 241 241 235 233 230 222 220 224 226 225 225 225 223 224 227 229 233 239 245
300 299 300 300 299 298 296 293 291 288 286 284 280 276 271 264 256 256 256 241 229 233 233 241 244 243 239 237 229 224 220 222 226 229 226 225 225 226 227 229 233 239 249
302 302 302 301 299 297 295 293 290 287 285 284 284 280 270 258 259 256 253 248 239 236 241 244 250 245 240 232 226 221 221 227 227 229 227 226 226 228 228 230 233 239 247
302 303 302 301 299 298 295 293 290 287 285 284 283 281 277 274 262 254 256 254 243 240 239 240 241 243 233 230 227 225 229 231 232 233 231 230 229 230 230 232 235 241 250
302 301 300 299 297 295 293 293 291 289 287 285 282 281 279 278 274 259 255 253 245 243 240 240 245 245 237 233 230 229 229 231 230 228 230 230 230 230 231 235 239 244 253
301 300 300 299 297 295 294 293 292 290 288 286 286 283 281 279 275 267 260 255 250 247 246 245 245 241 237 231 227 227 231 230 228 229 230 231 232 232 234 237 241 247 254
304 302 301 299 297 296 294 293 291 290 289 289 288 286 284 281 277 272 265 260 253 248 244 243 241 241 235 227 225 229 228 228 228 229 231 231 232 235 236 240 243 249 255
Wind_Speed_850mb
21 21 26 36 43 45 46 47 48 49 51 52 54 55 58 61 64 66 65 65 61 63 61 69 60 64 61 56 53 50 58 54 55 35 35 38 39 38 34 30 27 25 24
20 17 16 17 21 25 28 31 33 37 41 46 50 54 57 59 60 60 62 58 57 61 63 56 64 60 58 57 54 56 54 52 51 52 46 41 40 35 32 28 25 25 26
25 23 21 19 20 22 25 28 31 36 39 42 46 50 52 53 56 56 55 53 56 60 59 61 60 61 61 59 57 55 52 50 50 51 47 42 39 36 32 28 27 26 26
20 23 24 25 25 28 31 33 35 38 41 44 46 49 51 53 53 51 54 57 58 60 63 62 63 63 62 59 56 54 51 49 47 47 45 42 40 35 32 28 27 28 27
25 25 27 28 30 32 34 38 41 44 46 49 51 54 55 57 59 58 58 60 63 63 64 66 66 64 61 58 55 52 51 49 47 46 44 42 39 35 33 30 27 26 28
40 44 47 48 49 49 49 48 51 53 55 58 60 62 63 65 67 65 64 65 66 68 68 67 67 65 62 60 58 55 53 49 48 46 45 42 38 34 32 29 25 23 26
42 43 47 50 55 60 62 65 67 66 67 69 69 69 70 71 71 70 70 71 70 70 70 69 68 66 66 64 63 60 54 49 48 46 44 43 38 34 32 29 26 24 26
40 40 42 49 54 58 63 68 70 72 75 77 76 75 74 74 75 74 74 74 74 73 72 70 69 68 68 67 64 61 59 55 51 50 47 41 37 34 32 29 25 24 26
48 48 47 49 52 58 64 66 70 73 76 77 79 80 79 78 79 78 78 74 76 76 74 72 73 72 69 66 61 57 55 54 51 49 43 37 35 33 32 30 26 25 25
56 56 55 53 55 58 63 68 71 71 73 77 81 82 82 82 82 81 80 76 77 78 78 76 77 74 69 65 62 60 58 53 49 46 43 41 38 36 33 29 26 24 22
62 60 57 57 59 58 60 64 68 73 75 74 77 82 85 85 84 82 82 78 78 81 81 79 78 75 73 66 64 63 58 54 49 44 41 38 39 35 32 28 26 25 21
66 67 67 64 58 58 62 64 66 69 71 74 79 82 85 86 83 84 83 80 74 79 82 80 78 75 72 69 67 64 61 58 48 45 41 43 39 36 32 29 27 25 20
69 69 67 66 64 61 60 60 62 64 67 72 75 78 83 88 83 81 82 81 75 79 80 80 74 68 71 70 70 65 70 57 48 42 46 46 43 39 32 30 27 24 20
68 69 69 68 66 63 60 58 60 64 66 67 70 76 77 81 84 80 80 78 75 73 74 72 71 68 69 68 64 68 66 54 46 49 53 49 43 37 35 30 27 24 22
65 66 67 67 64 64 61 60 60 62 59 65 68 69 72 78 83 76 79 87 86 75 74 72 69 73 75 73 69 71 63 53 51 54 53 48 41 41 36 31 29 25 23
63 63 63 65 65 63 64 65 61 62 60 60 63 63 70 70 67 68 65 74 81 81 81 77 76 80 81 79 77 74 68 58 55 57 53 47 45 41 37 33 30 27 24
62 64 65 64 63 63 61 62 67 62 61 62 60 58 57 60 62 56 54 56 59 67 82 82 79 85 89 82 74 71 67 61 58 59 52 50 45 40 37 34 33 29 26
61 63 64 64 63 62 61 60 61 62 64 62 58 53 52 56 62 62 58 57 69 72 83 81 81 79 78 78 78 75 70 60 61 58 57 53 48 44 40 37 34 30 26
62 62 61 63 64 64 63 61 60 60 60 60 54 49 44 52 54 55 48 73 86 86 90 83 80 79 80 76 76 72 64 64 63 57 54 51 47 44 41 37 36 31 27
63 64 64 63 62 62 62 62 60 59 58 57 55 49 49 47 55 59 54 72 86 85 81 84 81 77 79 77 77 71 67 62 57 56 58 54 48 44 41 40 37 33 29
62 63 63 66 66 62 62 61 61 61 61 61 58 52 49 53 60 66 66 64 83 84 90 86 78 78 74 72 72 68 61 57 58 60 57 53 50 47 44 42 38 34 31
66 67 65 65 64 64 64 62 61 62 63 64 65 59 51 51 60 66 68 65 76 89 91 88 77 66 62 62 65 58 54 61 58 61 57 54 51 49 46 44 40 36 33
66 66 67 66 67 66 64 62 61 60 61 62 63 62 65 61 55 69 72 68 73 80 84 83 72 57 57 52 54 53 56 56 54 52 54 53 51 49 47 45 41 37 34
65 66 68 69 67 65 64 64 62 61 60 60 60 62 64 63 57 61 73 70 75 72 70 69 69 62 61 59 56 54 56 53 52 52 53 53 51 50 47 45 41 36 35
66 66 66 67 66 65 66 66 64 61 60 59 60 60 61 62 61 59 65 72 72 77 77 74 70 66 62 59 55 51 51 51 51 53 54 53 51 49 46 45 41 38 38
68 67 67 66 67 66 66 65 64 62 61 60 59 59 58 58 57 56 57 61 63 63 67 69 66 62 60 57 47 50 52 53 55 55 55 53 51 49 47 45 41 41 41
Wind_Direction_850mb
316 295 276 265 261 260 259 257 257 253 252 252 252 253 255 257 258 257 256 252 245 245 243 251 252 247 253 250 248 254 243 239 232 230 242 242 239 246 255 266 273 278 281
340 335 317 293 276 266 261 259 257 257 257 258 258 258 257 256 257 255 253 248 243 245 244 249 249 249 253 249 249 246 240 238 232 235 237 236 240 247 255 262 268 272 277
351 346 336 317 296 281 271 265 260 258 256 255 254 253 253 253 253 251 250 242 242 250 244 246 245 251 250 252 247 241 236 231 228 233 233 234 237 240 244 249 256 264 273
341 346 345 339 325 313 302 291 278 269 263 259 257 255 254 254 255 251 247 245 244 245 251 245 247 248 250 248 241 238 232 229 225 227 228 231 232 232 237 243 250 258 264
294 295 301 300 299 299 295 289 285 279 272 266 262 260 258 255 255 254 253 253 253 252 251 250 250 249 247 242 238 235 231 228 224 224 225 227 230 232 239 244 248 257 266
303 299 296 294 289 287 283 283 279 275 271 268 265 261 258 256 255 253 253 253 254 253 252 250 249 247 243 240 236 234 231 227 228 226 227 230 233 239 243 248 250 252 270
311 305 301 296 288 283 282 282 282 278 273 269 266 264 263 261 260 259 257 255 255 254 253 251 248 244 240 235 234 232 231 230 228 229 231 233 235 240 245 247 250 253 258
312 309 302 291 288 286 282 278 278 278 278 276 273 269 267 264 262 260 259 258 255 252 250 249 246 242 237 233 230 229 228 226 225 228 230 232 236 239 240 244 246 254 262
319 311 305 301 297 289 285 285 282 279 276 275 275 274 272 270 268 264 260 255 252 250 247 243 240 237 235 233 230 228 224 223 223 226 230 233 237 240 240 241 242 248 260
319 316 313 306 298 294 292 288 281 277 276 274 271 270 270 269 268 265 261 255 250 246 243 240 238 235 234 232 231 229 228 226 223 224 227 230 237 238 240 240 243 246 256
313 312 311 309 306 299 292 289 288 285 280 274 271 269 268 266 265 263 259 253 249 246 244 241 239 237 234 231 231 232 231 228 223 226 227 231 234 231 231 236 242 248 253
311 312 312 310 306 303 301 297 292 288 285 281 278 272 267 265 262 260 259 256 251 249 248 245 243 239 237 231 231 227 224 223 228 229 229 234 233 234 232 235 242 249 254
305 306 307 307 307 304 298 294 290 288 285 284 281 278 274 270 263 258 255 253 248 247 246 245 245 243 241 233 228 224 225 223 221 227 235 232 231 233 234 236 241 247 252
303 304 305 305 305 304 301 297 292 288 286 283 280 278 277 275 270 260 252 249 247 244 245 243 241 238 236 232 224 221 223 220 218 228 229 228 230 230 234 236 241 244 249
302 303 305 306 306 305 301 299 294 290 285 283 280 278 277 274 272 270 261 251 248 246 245 239 232 227 227 227 220 223 219 217 225 226 227 228 226 230 232 233 236 239 245
304 305 306 305 305 304 303 301 297 294 290 284 277 271 273 271 268 269 264 257 250 247 242 238 230 227 226 226 223 221 219 229 227 225 226 224 227 229 231 231 234 236 238
306 307 307 306 305 303 300 298 298 296 291 288 283 279 261 263 267 255 247 238 235 232 238 238 235 232 231 229 229 228 230 228 221 225 223 226 225 227 230 231 232 233 236
303 304 305 306 305 302 300 298 296 295 295 293 289 283 275 254 253 265 258 230 221 219 233 236 233 234 236 239 237 230 234 221 223 223 225 223 223 225 226 227 233 236 240
299 302 304 303 302 300 298 296 294 292 290 291 290 284 271 258 254 262 250 227 222 220 230 236 234 236 237 230 233 232 225 223 223 223 225 224 222 224 225 228 231 234 242
302 305 304 302 299 297 297 296 294 292 290 288 285 278 275 269 252 247 244 229 226 226 226 237 241 241 235 233 230 222 220 224 226 225 225 225 223 224 227 229 233 239 245
300 299 300 300 299 298 296 293 291 288 286 284 280 276 271 264 256 256 256 241 229 233 233 241 244 243 239 237 229 224 220 222 226 229 226 225 225 226 227 229 233 239 249
302 302 302 301 299 297 295 293 290 287 285 284 284 280 270 258 259 256 253 248 239 236 241 244 250 245 240 232 226 221 221 227 227 229 227 226 226 228 228 230 233 239 247
302 303 302 301 299 298 295 293 290 287 285 284 283 281 277 274 262 254 256 254 243 240 239 240 241 243 233 230 227 225 229 231 232 233 231 230 229 230 230 232 235 241 250
302 301 300 299 297 295 293 293 291 289 287 285 282 281 279 278 274 259 255 253 245 243 240 240 245 245 237 233 230 229 229 231 230 228 230 230 230 230 231 235 239 244 253
301 300 300 299 297 295 294 293 292 290 288 286 286 283 281 279 275 267 260 255 250 247 246 245 245 241 237 231 227 227 231 230 228 229 230 231 232 232 234 237 241 247 254
304 302 301 299 297 296 294 293 291 290 289 289 288 286 284 281 277 272 265 260 253 248 244 243 241 241 235 227 225 229 228 228 228 229 231 231 232 235 236 240 243 249 255